This is the latest recevied weather packets stored in our database for station/object HS2LXA-13. If no packets are shown the sender has not sent any weather packets the latest 10 day(s).
| Time | Temp. | Humidity | Pressure | Rain* | Wind** | Luminosity | Snow |
|---|---|---|---|---|---|---|---|
| 1777963351 | 32.22° C | 81% | 1009.7 hPa | 0.51 mm | - | 0 W/m² | - |
| 1777962751 | 32.78° C | 81% | 1009.7 hPa | 0.51 mm | - | 0 W/m² | - |
| 1777962150 | 32.22° C | 80% | 1009.5 hPa | 0.51 mm | - | 0 W/m² | - |
| 1777961550 | 33.33° C | 78% | 1009.9 hPa | 0.51 mm | - | 0 W/m² | - |
| 1777960948 | 35° C | 78% | 1010 hPa | 0.51 mm | - | 0 W/m² | - |
| 1777960345 | 35° C | 79% | 1010 hPa | 0.51 mm | - | 0 W/m² | - |
| 1777959744 | 35° C | 80% | 1010.3 hPa | 0.51 mm | - | 0 W/m² | - |
| 1777959141 | 35° C | 81% | 1010.4 hPa | 0.51 mm | - | 0 W/m² | - |
| 1777958544 | 34.44° C | 82% | 1010.6 hPa | 0.51 mm | - | 0 W/m² | - |
| 1777957939 | 33.89° C | 80% | 1010.8 hPa | 0.51 mm | - | 0 W/m² | - |
| 1777957339 | 34.44° C | 79% | 1010.9 hPa | 0.51 mm | - | 0 W/m² | - |
| 1777956740 | 33.89° C | 76% | 1011 hPa | 0.51 mm | - | 0 W/m² | - |
| 1777956138 | 33.33° C | 76% | 1011.1 hPa | 0.51 mm | - | 0 W/m² | - |
| 1777955533 | 33.33° C | 76% | 1011.3 hPa | 0.51 mm | - | 0 W/m² | - |
| 1777954932 | 32.78° C | 76% | 1011.3 hPa | 0.51 mm | - | 0 W/m² | - |
| 1777954330 | 32.78° C | 76% | 1011.6 hPa | 0.51 mm | - | 0 W/m² | - |
| 1777953727 | 32.78° C | 78% | 1011.7 hPa | 0.51 mm | - | 0 W/m² | - |
| 1777953125 | 32.22° C | 80% | 1011.7 hPa | 0.51 mm | - | 0 W/m² | - |
| 1777952522 | 32.22° C | 84% | 1011.8 hPa | 0.51 mm | - | 0 W/m² | - |
| 1777951920 | 31.67° C | 84% | 1011.8 hPa | 0.51 mm | - | 0 W/m² | - |
| 1777951320 | 31.67° C | 85% | 1011.9 hPa | 0.51 mm | - | 0 W/m² | - |
| 1777950717 | 31.11° C | 82% | 1012.1 hPa | 0.51 mm | - | 0 W/m² | - |
| 1777950115 | 30.56° C | 83% | 1012.2 hPa | 0.51 mm | - | 0 W/m² | - |
| 1777949514 | 31.11° C | 84% | 1012.2 hPa | 0.51 mm | - | 0 W/m² | - |
| 1777948912 | 30.56° C | 83% | 1012 hPa | 0.51 mm | - | 0 W/m² | - |
* Rain latest hour (hover to see other rain measurements)
** Current wind speed in m/s (hover to see current wind gust speed)